[[{"header":{"parameterUnit":"m.s-1","parameterCategory":1,"la1":30.2991,"la2":30.254,"lo1":-89.0895,"lo2":-89.0444,"dy":0.0017,"dx":0.0017,"nx":28,"ny":28,"refTime":"2023-08-07T09:00:00:Z","depth":0,"parameterNumber":2,"parameterNumberName":"U-component_of_WINDS"},"data":[0,0,0,0,0,0,0,0,0,0,0,0,0,0,0,0,0,0,0,0,0,0,0,0,0,0,0,0,0,0,0,0,0,0,0,0,0,0,0,0,0,0,0,0,0,0,0,0,0,0,0,0,0,0,0,0,0,0,4.1801,4.1802,0,4.1917,4.1918,4.192,4.1922,4.192,4.1919,4.1917,4.2038,4.2043,4.2047,0,0,0,0,0,0,0,0,0,0,0,0,0,4.1583,4.1587,4.1801,4.1803,4.1804,4.1917,4.1919,4.192,4.1922,4.192,4.1918,4.1917,4.2037,4.2042,4.2048,0,0,0,0,0,0,0,0,0,0,0,0,0,4.1686,4.1589,4.1801,4.1818,4.1821,4.1917,4.1919,4.1921,4.1922,4.192,4.1918,4.1916,4.2035,4.2042,4.2048,4.2135,0,0,4.2069,4.2072,0,0,0,0,0,0,0,0,4.1681,4.1694,4.1814,4.1817,4.1821,4.1903,4.1886,4.1992,4.1923,4.1884,4.1917,4.1915,4.1995,4.2005,4.2032,4.214,4.2146,4.207,4.2074,4.2077,4.2079,0,0,0,0,0,0,0,4.1673,4.169,4.1847,4.1816,4.182,4.1821,4.1833,4.1906,4.195,4.1887,4.1887,4.1901,4.1996,4.2025,4.2035,4.2147,4.207,4.2076,4.208,4.2083,4.2333,4.2335,0,0,0,0,0,0,4.1662,4.1684,4.1843,4.1851,4.1744,4.1827,4.1841,4.1879,4.195,4.1958,4.1903,4.1901,4.2014,4.2027,4.2039,4.2144,4.2077,4.2084,4.2088,4.2331,4.2334,4.2336,0,0,0,0,0,0,4.1658,4.1677,4.1839,4.1767,4.1788,4.1833,4.1876,4.1882,4.1911,4.1961,4.197,4.1924,4.2013,4.2029,4.2111,4.2148,4.2087,4.2093,4.2328,4.2332,4.2335,4.2356,0,0,0,0,0,0,4.1652,4.1675,4.1708,4.1768,4.1792,4.1908,4.1878,4.1886,4.1922,4.1921,4.1983,4.1992,4.2013,4.21,4.2118,4.2157,4.2098,4.2324,4.2329,4.2334,4.2352,4.236,4.2367,0,0,0,0,0,4.1644,4.1709,4.1709,4.1729,4.1833,4.191,4.1924,4.1946,4.1925,4.1959,4.1992,4.199,4.2142,4.2109,4.2128,4.217,4.2322,4.2328,4.2333,4.2349,4.2358,4.2366,0,0,0,0,0,0,4.1653,4.1718,4.1718,4.1805,4.1852,4.191,4.1953,4.1955,4.201,4.2006,4.2032,4.2046,4.2127,4.2157,4.2119,4.2257,4.223,4.2239,4.2235,4.2244,4.2251,4.2242,4.2104,0,0,0,0,0,4.1665,4.1721,4.1775,4.1847,4.187,4.1908,4.1942,4.1955,4.2005,4.2025,4.2064,4.2113,4.2172,4.221,4.2267,4.2357,4.237,4.2395,4.2402,4.2408,4.2416,4.2466,4.2477,4.2355,4.2355,4.2355,0,0,4.1691,4.1733,4.1767,4.185,4.1887,4.1946,4.1924,4.1987,4.203,4.2035,4.2113,4.2144,4.2201,4.2287,4.2326,4.2314,4.2453,4.2415,4.242,4.2424,4.2473,4.2484,4.2494,4.2359,4.2358,4.2357,0,0,4.1767,4.1805,4.1868,4.1907,4.1964,4.1989,4.2004,4.2062,4.2082,4.2162,4.2166,4.2219,4.232,4.236,4.2393,4.2485,4.2486,4.2504,4.2541,4.2589,4.2599,4.2607,4.264,4.2651,4.2511,4.2511,4.2512,0,4.1792,4.1879,4.1901,4.1963,4.2,4.2006,4.2071,4.2107,4.2181,4.2206,4.2191,4.2317,4.2356,4.2451,4.2473,4.2501,4.2519,4.2496,4.2596,4.2605,4.2613,4.2644,4.2656,4.2513,4.2513,4.2513,4.2513,0,4.1906,4.1966,4.2011,4.2081,4.2122,4.2186,4.2218,4.2258,4.2268,4.2294,4.2375,4.2422,4.2488,4.2512,4.2523,4.2609,4.26,4.259,4.2562,4.2626,4.2655,4.2667,4.2516,4.2515,4.2514,4.2514,0,0,4.199,4.2072,4.2087,4.2119,4.2183,4.2231,4.2295,4.2359,4.2392,4.2443,4.2498,4.2583,4.2575,4.2613,4.2628,4.267,4.274,4.2656,4.2657,4.2669,4.2837,4.2843,4.2856,4.2741,4.2743,4.2745,4.2832,0,4.2072,4.2185,4.2207,4.2305,4.2361,4.2369,4.2425,4.247,4.2497,4.2549,4.2579,4.2639,4.2624,4.2646,4.2689,4.2722,4.2774,4.2716,4.2791,4.2794,4.2775,4.2872,4.2878,4.2958,4.2844,4.2846,4.2847,0,4.2183,4.2235,4.2339,4.2396,4.242,4.247,4.253,4.258,4.2633,4.2649,4.2692,4.2703,4.277,4.274,4.2834,4.2794,4.2826,4.2848,4.2851,4.2858,4.2823,4.288,4.2984,4.2996,4.2866,4.2864,4.2863,0,4.2232,4.233,4.2404,4.2431,4.2499,4.2534,4.2564,4.2614,4.2652,4.2705,4.273,4.2791,4.2824,4.2872,4.2899,4.2875,4.299,4.2962,4.3005,4.3005,4.3028,4.3026,4.3138,4.3051,4.3051,4.3051,4.3051,0,4.2321,4.2384,4.2427,4.2473,4.2543,4.2569,4.2639,4.2669,4.2714,4.2765,4.2776,4.2825,4.2859,4.2912,4.2934,4.3008,4.3023,4.3039,4.3043,4.3037,4.3035,4.3057,4.3052,4.3054,4.3053,4.3053,4.3052,0,4.2388,4.2419,4.2501,4.2559,4.2575,4.2624,4.2674,4.2719,4.2746,4.2812,4.2829,4.2872,4.2936,4.2968,4.3048,4.3062,4.3145,4.3147,4.3127,4.3128,4.3169,4.3164,4.3298,4.3317,4.3219,4.322,4.3221,0,4.2441,4.249,4.2553,4.2588,4.2619,4.2676,4.2714,4.2742,4.2781,4.2844,4.2882,4.2946,4.2998,4.31,4.3139,4.32,4.3203,4.3246,4.3212,4.3204,4.3202,4.3198,4.3203,4.3251,4.3252,4.3253,4.3253,0,4.2533,4.2547,4.26,4.266,4.2705,4.2753,4.2801,4.283,4.2865,4.2909,4.2974,4.3014,4.3096,4.3159,4.3223,4.3255,4.326,4.3264,4.3277,4.327,4.3255,4.3263,4.3142,4.326,4.326,4.3259,4.3259,4.3258,4.2595,4.2638,4.2689,4.2748,4.2787,4.2832,4.2876,4.2909,4.2964,4.3031,4.3045,4.3113,4.3165,4.3252,4.3286,4.334,4.3331,4.335,4.3355,4.3359,4.336,4.3248,4.3352,4.3352,4.3352,4.3352,4.3352,0,4.2686,4.2719,4.2774,4.284,4.2887,4.2888,4.2941,4.298,4.304,4.3088,4.314,4.3214,4.3276,4.332,4.3383,4.3418,4.3422,4.3434,4.3431,4.3438,4.3365,4.3347,4.3429,4.3429,4.3429,4.3429,4.3429,4.3429,4.2739,4.2811,4.2831,4.2923,4.2957,4.3023,4.3053,4.3095,4.3133,4.3215,4.3266,4.3294,4.3341,4.3407,4.3464,4.3476,4.3498,4.3509,4.352,4.3451,4.3443,4.3435,4.3418,4.3514,4.3514,4.3589,4.3589,4.359]},{"header":{"parameterUnit":"m.s-1","parameterCategory":1,"la1":30.2991,"la2":30.254,"lo1":-89.0895,"lo2":-89.0444,"dy":0.0017,"dx":0.0017,"nx":28,"ny":28,"refTime":"2023-08-07T09:00:00:Z","depth":0,"parameterNumber":3,"parameterNumberName":"V-component_of_WINDS"},"data":[0,0,0,0,0,0,0,0,0,0,0,0,0,0,0,0,0,0,0,0,0,0,0,0,0,0,0,0,0,0,0,0,0,0,0,0,0,0,0,0,0,0,0,0,0,0,0,0,0,0,0,0,0,0,0,0,0,0,0.8008,0.8008,0,0.8002,0.8002,0.8002,0.8002,0.8002,0.8002,0.8002,0.7996,0.7995,0.7995,0,0,0,0,0,0,0,0,0,0,0,0,0,0.8017,0.8017,0.8008,0.8008,0.8008,0.8002,0.8002,0.8002,0.8002,0.8002,0.8002,0.8002,0.7996,0.7995,0.7995,0,0,0,0,0,0,0,0,0,0,0,0,0,0.8012,0.8017,0.8008,0.8007,0.8007,0.8002,0.8002,0.8002,0.8002,0.8002,0.8002,0.8002,0.7996,0.7995,0.7995,0.799,0,0,0.7994,0.7994,0,0,0,0,0,0,0,0,0.8013,0.8012,0.8007,0.8007,0.8007,0.8003,0.8003,0.7998,0.8002,0.8004,0.8002,0.8003,0.7998,0.7997,0.7996,0.799,0.799,0.7994,0.7994,0.7993,0.7993,0,0,0,0,0,0,0,0.8013,0.8012,0.8006,0.8007,0.8007,0.8006,0.8006,0.8002,0.8,0.8004,0.8004,0.8003,0.7998,0.7996,0.7996,0.799,0.7994,0.7994,0.7993,0.7993,0.7977,0.7977,0,0,0,0,0,0,0.8014,0.8012,0.8006,0.8005,0.801,0.8006,0.8006,0.8004,0.8,0.8,0.8003,0.8003,0.7997,0.7996,0.7996,0.7989,0.7993,0.7993,0.7993,0.7978,0.7977,0.7977,0,0,0,0,0,0,0.8014,0.8013,0.8006,0.8009,0.8008,0.8006,0.8004,0.8004,0.8003,0.8,0.7999,0.8002,0.7997,0.7996,0.7991,0.7988,0.7993,0.7993,0.7978,0.7978,0.7977,0.7975,0,0,0,0,0,0,0.8014,0.8013,0.8012,0.8009,0.8008,0.8002,0.8004,0.8004,0.8002,0.8002,0.7999,0.7998,0.7997,0.7992,0.7991,0.7988,0.7992,0.7978,0.7978,0.7977,0.7976,0.7975,0.7975,0,0,0,0,0,0.8014,0.8012,0.8012,0.8011,0.8006,0.8002,0.8002,0.8001,0.8002,0.8,0.7998,0.7998,0.7989,0.7991,0.799,0.7987,0.7978,0.7978,0.7977,0.7976,0.7975,0.7975,0,0,0,0,0,0,0.8014,0.8011,0.8011,0.8008,0.8005,0.8002,0.8,0.8,0.7997,0.7997,0.7996,0.7995,0.799,0.7988,0.7991,0.7982,0.7984,0.7983,0.7983,0.7982,0.7982,0.7982,0.7992,0,0,0,0,0,0.8014,0.8012,0.8009,0.8006,0.8005,0.8003,0.8001,0.8,0.7997,0.7996,0.7994,0.7991,0.7987,0.7985,0.7981,0.7975,0.7974,0.7973,0.7972,0.7972,0.7971,0.7966,0.7965,0.7976,0.7976,0.7976,0,0,0.8013,0.8011,0.801,0.8006,0.8004,0.8,0.8002,0.7999,0.7996,0.7996,0.7991,0.7989,0.7985,0.7979,0.7977,0.7978,0.7968,0.7971,0.7971,0.797,0.7966,0.7965,0.7964,0.7976,0.7976,0.7976,0,0,0.801,0.8009,0.8005,0.8003,0.8,0.7998,0.7997,0.7994,0.7993,0.7988,0.7987,0.7983,0.7977,0.7974,0.7972,0.7965,0.7965,0.7964,0.7961,0.7957,0.7956,0.7955,0.7952,0.7951,0.7964,0.7964,0.7964,0,0.8009,0.8005,0.8004,0.8,0.7998,0.7997,0.7993,0.7991,0.7987,0.7985,0.7986,0.7977,0.7975,0.7967,0.7966,0.7964,0.7962,0.7965,0.7956,0.7955,0.7955,0.7951,0.795,0.7964,0.7964,0.7964,0.7964,0,0.8003,0.8,0.7998,0.7993,0.7991,0.7987,0.7984,0.7982,0.7981,0.7979,0.7973,0.797,0.7965,0.7963,0.7962,0.7955,0.7956,0.7957,0.7959,0.7954,0.795,0.7949,0.7963,0.7963,0.7963,0.7964,0,0,0.8001,0.7995,0.7994,0.7991,0.7987,0.7984,0.7979,0.7975,0.7972,0.7968,0.7964,0.7958,0.7958,0.7955,0.7954,0.795,0.7944,0.7951,0.7951,0.7949,0.7934,0.7933,0.7932,0.7943,0.7943,0.7943,0.7934,0,0.7997,0.7989,0.7987,0.7981,0.7977,0.7975,0.7971,0.7967,0.7965,0.7961,0.7958,0.7953,0.7954,0.7953,0.7949,0.7945,0.794,0.7946,0.7938,0.7938,0.7939,0.793,0.793,0.7921,0.7933,0.7933,0.7933,0,0.7991,0.7987,0.798,0.7974,0.7973,0.7969,0.7964,0.796,0.7955,0.7953,0.7949,0.7948,0.7942,0.7944,0.7936,0.7939,0.7936,0.7933,0.7933,0.7932,0.7935,0.7928,0.7919,0.7917,0.7931,0.7931,0.7931,0,0.7989,0.7981,0.7976,0.7974,0.7968,0.7965,0.7962,0.7957,0.7954,0.7949,0.7946,0.7941,0.7938,0.7933,0.7929,0.7932,0.792,0.7923,0.7918,0.7918,0.7915,0.7915,0.7905,0.7914,0.7914,0.7914,0.7914,0,0.7984,0.7979,0.7975,0.7971,0.7965,0.7963,0.7957,0.7954,0.7949,0.7944,0.7943,0.7938,0.7934,0.7929,0.7926,0.7918,0.7917,0.7915,0.7914,0.7915,0.7915,0.7912,0.7912,0.7914,0.7914,0.7914,0.7914,0,0.7981,0.7977,0.7971,0.7965,0.7964,0.796,0.7954,0.795,0.7947,0.7941,0.7939,0.7934,0.7927,0.7924,0.7915,0.7913,0.7904,0.7904,0.7906,0.7905,0.79,0.79,0.7887,0.7884,0.7896,0.7896,0.7896,0,0.7978,0.7974,0.7967,0.7964,0.7961,0.7956,0.7952,0.7949,0.7945,0.7938,0.7934,0.7927,0.7922,0.791,0.7906,0.7899,0.7898,0.7893,0.7897,0.7897,0.7896,0.7896,0.7895,0.7893,0.7893,0.7893,0.7893,0,0.7972,0.797,0.7965,0.7959,0.7955,0.795,0.7945,0.7942,0.7938,0.7933,0.7926,0.7921,0.7912,0.7904,0.7897,0.7893,0.7891,0.7891,0.789,0.789,0.7891,0.7889,0.7903,0.7892,0.7892,0.7892,0.7892,0.7892,0.7968,0.7964,0.7959,0.7953,0.7949,0.7943,0.7939,0.7935,0.7929,0.7921,0.7919,0.7911,0.7905,0.7894,0.789,0.7883,0.7884,0.7882,0.7881,0.788,0.7879,0.7892,0.7882,0.7882,0.7882,0.7882,0.7882,0,0.7962,0.7958,0.7953,0.7945,0.794,0.7939,0.7933,0.7929,0.7922,0.7916,0.791,0.7901,0.7893,0.7887,0.7879,0.7874,0.7873,0.7872,0.7872,0.7871,0.788,0.7882,0.7873,0.7873,0.7873,0.7873,0.7873,0.7873,0.7958,0.7951,0.7948,0.7938,0.7934,0.7927,0.7923,0.7918,0.7913,0.7903,0.7896,0.7892,0.7886,0.7877,0.7869,0.7867,0.7864,0.7863,0.7861,0.7869,0.787,0.7871,0.7873,0.7862,0.7862,0.7852,0.7852,0.7852]}]]